Probability
0 0 0 0 0 0 0 0 0 0 0 0 0 0 0 0 0 0 0 0 0 0 0 0 0 0 0 0 0 0 0 0 0 0 0 0 0 0
0 0 0 0 0 0 0 0 0 0 0 0 0 0 0 0 0 0 0 0 0 0 0 0 0 0 0 0 0 0 0 0 0 0 0 0 0 0
0 0 0 0 0 0 0 0 0 0 0 0 0 0 0 0 0 0 0 0 0 0 0 0 0 0 0 0 0 0 0 0 0 0 0 0 0 0
0 0 0 0 0 0 0 0 0 0 0 0 0 0 0 0 0 0 0 0 0 0 0 0 0 0 0 0 0 0 0 0 0 0 0 0 0 0
0 0 0 0 0 0 0 0 0 0 0 0 0 0 0 0 0 0 0 0 0 0 0 0 0 0 0 0 0 0 0 0 0 0 0 0 0 0
0 0 0 0 0 0 0 0 0 0 0 0 0 0 0 0 0 0 0 0 0 0 0 0 0 0 0 0 0 0 0 0 0 0 0 0 0 0
0 0 0 0 0 0 0 0 0 0 0 0 0 0 0 0 0 0 0 0 0 0 0 0 0 0 0 0 0 0 0 0 0 0 0 0 0 0
0 0 0 0 0 0 0 0 0 0 0 0 0 0 0 0 0 0 0 0 0 0 0 0 0 0 0 0 0 0 0 0 0 0 0 0 0 0
0 0 0 0 0 0 0 0 0 0 0 0 0 0 0 0 0 0 0 0 0 0 0 0 0 0 0 0 0 0 0 0 0 0 0 0 0 0
0 0 0 0 0 0 0 0 0 0 0 0 0 0 0 0 0 0 0 0 0 0 0 0 0 0 0 0 0 0 0 0 0 0 0 0 0 0
0 0 0 0 0 0 0 0 0 0 0 0 0 0 0 0 0 0 0 0 0 0 0 0 0 0 0 0 0 0 0 0 0 0 0 0 0 0
0 0 0 0 0 0 0 0 0 0 0 0 0 0 0 0 0 0 0 0 0 0 0 0 0 0 0 0 0 0 0 0 0 0 0 0 0 0
0 0 0 0 0 0 0 0 0 0 0 0 0 0 0 0 0 0 0 0 0 0 0 0 0 0 0 0 0 0 0 0 0 0 0 0 0 0
0 0 0 0 0 0 0 0 0 0 0 0 0 0 0 0 0 0 0 0 0 0 0 0 0 0 0 0 0 0 0 0 0 0 0 0 0 0
0 0 0 0 0 0 0 0 0 0 0 0 0 0 0 0 0 0 0 0 0 0 0 0 0 0 0 0 0 0 0 0 0 0 0 0 0 0
0 0 0 0 0 0 0 0 0 0 0 0 0 0 0 0 0 0 0 0 0 0 0 0 0 0 0 0 0 0 0 0 0 0 0 0 0 0
0 0 0 0 0 0 0 0 0 0 0 0 0 0 0 0 0 0 0 0 0 0 0 0 0 0 0 0 0 0 0 0 0 0 0 0 0 0
0 0 0 0 0 0 0 0 0 0 0 0 0 0 0 0 0 0 0 0 0 0 0 0 0 0 0 0 0 0 0 0 0 0 0 0 0 0
0 0 0 0 0 0 0 0 0 0 0 0 0 0 0 0 0 0 0 0 0 0 0 0 0 0 0 0 0 0 0 0 0 0 0 0 0 0
0 0 0 0 0 0 0 0 0 0 0 0 0 0 0 0 0 0 0 0 0 0 0 0 0 0 0 0 0 0 0 0 0 0 0 0 0 0
0 0 0 0 0 0 0 0 0 0 0 0 0 0 0 0 0 0 0 0 0 0 0 0 0 0 0 0 0 0 0 0 0 0 0 0 0 0
0 0 0 0 0 0 0 0 0 0 0 0 0 0 0 0 0 0 0 0 0 0 0 0 0 0 0 0 0 0 0 0 0 0 0 0 0 0
0 0 0 0 0 0 0 0 0 0 0 0 0 0 0 0 0 0 0 0 0 0 0 0 0 0 0 0 0 0 0 0 0 0 0 0 0 0
Height
5617 5618 5619 5620 5621 5622 5623 5625 5627 5629 5631 5632 5632 5633 5634 5636 5637 5638 5639 5640 5641 5642 5643 5644 5645 5646 5647 5648 5649 5650 5652 5652 5653 5655 5656 5658 5660 5661
5602 5603 5604 5605 5606 5607 5608 5609 5610 5612 5614 5616 5616 5616 5617 5618 5619 5620 5621 5622 5623 5624 5625 5626 5627 5628 5629 5629 5630 5632 5633 5634 5635 5636 5637 5638 5640 5641
5587 5588 5589 5590 5591 5591 5592 5593 5594 5595 5597 5600 5599 5599 5600 5601 5602 5602 5603 5604 5605 5606 5607 5608 5609 5609 5610 5611 5612 5613 5614 5614 5615 5616 5617 5618 5619 5622
5572 5573 5574 5575 5575 5576 5576 5577 5578 5579 5580 5583 5583 5583 5583 5583 5584 5584 5585 5586 5587 5588 5588 5589 5590 5590 5591 5592 5592 5593 5594 5595 5595 5596 5597 5599 5599 5600
5558 5558 5559 5560 5560 5560 5561 5561 5562 5563 5564 5565 5567 5566 5566 5566 5566 5567 5567 5568 5568 5569 5570 5570 5571 5572 5572 5572 5572 5573 5574 5575 5576 5576 5577 5578 5580 5581
5543 5544 5545 5545 5546 5545 5545 5546 5547 5547 5548 5549 5550 5550 5550 5550 5549 5550 5550 5550 5551 5551 5552 5552 5553 5553 5554 5554 5554 5554 5554 5555 5555 5556 5557 5559 5560 5561
5529 5530 5530 5531 5531 5531 5531 5531 5532 5532 5533 5533 5534 5534 5534 5534 5534 5533 5534 5534 5535 5534 5535 5535 5536 5537 5536 5535 5535 5535 5535 5535 5536 5537 5538 5539 5540 5542
5515 5516 5517 5517 5517 5517 5517 5517 5517 5517 5518 5518 5518 5519 5519 5519 5518 5518 5518 5519 5520 5520 5518 5518 5518 5519 5518 5518 5517 5517 5516 5517 5518 5518 5520 5521 5522 5523
5502 5503 5504 5504 5504 5504 5504 5503 5503 5503 5503 5503 5504 5504 5504 5504 5504 5504 5503 5503 5503 5503 5502 5503 5501 5502 5501 5500 5500 5499 5499 5499 5500 5501 5501 5502 5504 5504
5489 5490 5490 5491 5491 5491 5490 5490 5490 5490 5490 5489 5490 5490 5490 5489 5489 5489 5488 5488 5488 5487 5486 5487 5486 5486 5485 5484 5483 5483 5483 5483 5483 5484 5484 5485 5486 5487
5476 5476 5477 5477 5478 5478 5477 5477 5478 5477 5476 5475 5476 5476 5475 5475 5475 5475 5475 5474 5474 5474 5472 5472 5471 5471 5470 5469 5468 5468 5468 5468 5467 5468 5468 5469 5469 5469
5463 5463 5464 5464 5464 5464 5464 5464 5465 5464 5463 5463 5463 5462 5462 5462 5462 5461 5461 5460 5460 5460 5459 5458 5457 5456 5457 5457 5455 5453 5453 5453 5452 5452 5453 5453 5452 5452
5450 5451 5451 5451 5451 5451 5451 5452 5452 5451 5451 5450 5450 5450 5449 5449 5449 5448 5448 5447 5447 5446 5446 5445 5444 5443 5442 5444 5442 5440 5439 5438 5438 5438 5437 5437 5436 5436
5438 5438 5439 5439 5439 5439 5439 5439 5439 5438 5438 5438 5438 5438 5438 5437 5437 5436 5435 5435 5434 5434 5433 5432 5431 5430 5429 5429 5429 5428 5426 5425 5424 5424 5423 5422 5421 5420
5426 5426 5426 5427 5427 5427 5426 5426 5426 5426 5426 5426 5426 5426 5426 5425 5425 5424 5423 5423 5422 5421 5420 5419 5418 5417 5416 5416 5415 5414 5413 5412 5410 5410 5409 5408 5407 5406
5414 5414 5414 5414 5415 5415 5415 5415 5415 5414 5414 5414 5414 5414 5414 5413 5413 5412 5412 5411 5411 5409 5407 5406 5405 5405 5404 5403 5402 5401 5399 5398 5397 5396 5395 5394 5393 5391
5401 5402 5402 5403 5403 5403 5403 5403 5403 5403 5403 5403 5402 5402 5402 5402 5401 5400 5400 5399 5399 5398 5396 5395 5393 5392 5392 5391 5390 5388 5387 5386 5384 5383 5382 5381 5380 5377
5389 5390 5390 5391 5391 5391 5391 5391 5391 5391 5391 5391 5391 5390 5390 5390 5389 5389 5388 5388 5387 5386 5385 5383 5382 5381 5381 5380 5378 5376 5375 5373 5372 5370 5369 5368 5368 5365
5377 5378 5378 5379 5379 5379 5380 5380 5380 5380 5379 5379 5379 5379 5378 5378 5378 5377 5377 5377 5376 5375 5374 5372 5371 5370 5370 5370 5368 5365 5363 5362 5360 5359 5357 5355 5354 5353
5365 5366 5366 5367 5367 5368 5368 5368 5368 5368 5368 5368 5368 5367 5367 5367 5366 5366 5366 5365 5365 5364 5363 5361 5360 5359 5358 5358 5358 5356 5352 5350 5349 5347 5345 5343 5342 5340
5353 5354 5354 5355 5355 5356 5356 5356 5356 5356 5357 5357 5356 5356 5356 5356 5355 5355 5355 5354 5354 5353 5353 5351 5349 5348 5347 5347 5347 5346 5343 5339 5336 5335 5333 5331 5330 5329
5341 5341 5342 5343 5343 5344 5344 5344 5345 5345 5345 5345 5345 5345 5345 5344 5344 5344 5344 5343 5343 5342 5342 5341 5339 5338 5337 5336 5335 5334 5333 5330 5327 5324 5321 5319 5316 5316
5329 5330 5330 5331 5331 5332 5333 5333 5334 5334 5334 5334 5334 5334 5334 5334 5333 5333 5333 5333 5332 5332 5331 5330 5329 5328 5327 5325 5324 5323 5321 5319 5317 5315 5313 5309 5306 5304
Wind_Speed
55 55 55 55 55 56 57 58 58 58 57 57 57 59 60 61 61 61 62 62 62 62 63 63 62 62 62 63 64 64 64 63 63 63 63 63 63 63
54 55 55 54 55 56 57 58 58 58 57 58 59 59 60 61 61 62 63 64 64 64 64 63 63 63 63 64 65 65 65 65 65 64 65 65 65 65
55 55 55 55 56 57 57 58 58 57 57 57 58 59 60 61 61 62 63 63 63 64 64 63 63 62 63 64 64 65 65 65 65 66 66 67 67 66
55 56 56 56 57 57 57 58 58 58 58 57 58 59 60 60 61 61 61 62 62 63 63 62 62 63 63 64 65 65 66 66 66 66 67 67 67 67
56 56 56 56 56 57 57 57 58 58 59 58 58 58 59 59 59 60 60 61 61 61 62 62 62 62 63 63 64 65 66 66 66 66 66 66 66 67
54 54 54 54 54 55 56 57 58 58 58 58 58 58 58 58 58 58 58 58 59 59 60 61 61 61 61 62 62 63 64 64 64 64 64 64 64 65
52 52 52 52 52 51 53 54 55 56 56 57 56 56 56 55 56 56 56 56 57 57 58 58 59 59 59 59 60 60 61 61 62 62 62 62 63 63
50 50 51 51 50 50 50 51 52 53 53 54 54 54 53 54 54 54 55 55 55 57 57 57 58 58 58 58 58 58 58 58 59 59 60 61 61 61
49 49 49 49 49 49 49 49 50 50 50 51 51 51 52 52 52 52 53 53 54 54 55 55 55 55 54 54 54 54 54 55 57 58 58 59 59 59
48 48 48 49 48 48 48 48 48 48 48 49 49 49 49 49 49 49 50 51 52 51 52 52 51 51 52 52 52 53 53 54 55 56 56 57 58 58
47 46 46 46 45 45 46 46 46 46 46 47 48 48 48 48 48 48 48 48 48 48 48 48 48 49 49 50 50 50 51 52 53 53 54 54 55 56
44 45 45 45 45 45 45 45 45 45 46 46 46 46 46 46 46 46 47 46 46 45 45 46 47 48 47 47 48 48 49 50 51 51 52 53 54 54
42 43 44 44 45 44 44 44 44 44 44 44 44 44 44 44 44 45 44 44 44 44 44 45 46 46 46 45 46 47 48 49 50 50 51 52 52 53
41 41 41 42 43 42 43 43 43 43 43 42 42 42 42 43 43 43 43 43 43 43 44 45 45 45 45 44 44 45 46 47 48 48 48 49 50 51
39 39 40 39 40 40 40 41 41 41 41 41 41 41 42 42 43 43 42 42 43 43 43 44 44 43 43 43 44 44 45 46 47 47 46 46 47 48
39 39 40 39 39 39 40 40 39 39 39 39 39 40 41 41 42 42 42 42 42 42 43 42 42 42 41 41 42 42 42 42 43 43 43 44 45 45
40 39 38 38 38 38 38 39 39 39 39 39 39 39 40 40 41 40 40 40 40 40 40 40 40 40 39 39 39 39 39 40 41 42 42 43 44 45
39 39 38 38 38 37 37 37 37 38 38 38 38 38 39 39 39 39 39 39 39 39 38 39 39 38 38 38 38 39 39 39 40 41 41 41 41 42
38 39 39 38 38 37 37 37 37 38 38 38 38 38 38 38 37 37 38 38 38 38 38 38 38 38 37 37 37 38 38 38 38 39 39 40 40 40
38 38 38 38 37 37 37 37 37 37 37 37 37 37 37 37 37 37 37 37 37 38 38 38 38 37 37 36 35 36 37 37 37 37 38 38 38 38
37 37 38 38 38 38 38 37 37 37 37 37 37 37 36 36 37 37 37 37 37 37 37 36 36 36 36 36 35 35 36 37 37 37 37 37 37 37
36 37 37 38 38 37 37 37 37 37 36 36 36 36 37 37 37 37 37 37 36 36 36 35 35 36 36 36 35 35 35 35 36 36 37 37 37 36
36 36 36 36 36 37 37 36 36 36 36 36 36 36 36 36 36 36 36 36 35 35 35 34 35 35 36 36 35 35 34 35 35 36 36 36 35 35
Wind_Direction
265 265 264 264 264 264 264 264 264 264 263 264 264 264 265 265 265 266 266 267 267 266 266 266 267 266 266 266 266 266 267 267 267 267 266 266 266 266
265 265 264 264 264 264 264 265 265 264 264 264 264 265 265 266 266 267 267 267 267 267 267 267 268 268 267 267 267 267 267 268 267 267 267 267 267 266
266 265 265 265 265 264 265 265 265 265 265 265 266 266 267 267 268 268 268 268 268 268 268 268 268 268 268 268 268 268 268 268 268 268 268 267 267 267
265 265 265 266 265 265 266 265 265 265 265 266 267 268 268 269 269 269 268 268 268 268 268 268 269 269 269 269 269 269 268 268 268 268 268 268 267 267
266 266 266 267 267 267 266 266 266 266 266 266 267 268 269 269 269 269 269 269 269 268 268 268 269 270 270 270 270 269 269 268 268 268 268 268 268 268
266 266 266 267 267 268 268 266 266 267 267 268 268 269 269 269 269 269 269 269 270 269 269 269 270 271 271 271 271 270 270 269 268 268 268 268 267 267
265 264 265 267 267 268 268 267 267 268 268 269 270 269 269 269 269 270 270 270 270 271 271 271 271 272 272 273 273 272 271 270 269 268 268 268 268 268
263 264 265 266 266 267 268 267 267 268 268 269 269 269 269 269 269 270 271 271 271 272 273 273 273 273 274 274 274 273 272 270 269 268 268 269 269 269
263 264 265 265 266 266 266 267 268 269 270 270 271 271 270 270 270 271 271 273 274 274 274 274 273 273 273 274 273 272 272 271 270 269 269 269 269 269
262 263 264 265 266 266 267 268 269 270 271 271 271 271 271 270 271 272 273 274 274 275 275 274 273 274 274 274 273 272 272 271 271 270 270 270 270 269
263 263 264 266 266 266 267 268 269 270 271 272 272 271 271 271 271 272 274 275 275 275 275 275 274 275 275 275 274 273 273 273 272 271 270 271 271 271
264 265 265 265 265 266 267 268 269 270 271 271 271 271 271 271 272 273 275 275 275 275 275 275 276 276 275 274 274 274 274 274 273 272 272 272 273 272
265 265 266 265 266 267 268 268 269 270 270 270 270 270 270 271 273 274 275 275 275 275 275 276 277 278 276 275 274 274 274 274 274 274 274 274 274 273
265 266 266 266 267 268 269 269 269 270 269 270 270 270 271 272 272 274 275 275 275 276 277 278 278 278 277 276 275 275 275 275 275 274 274 275 275 275
265 266 267 268 268 269 269 269 270 270 270 270 270 270 271 272 273 274 275 276 276 277 278 278 279 279 278 277 276 276 276 275 275 275 274 275 276 275
266 267 268 268 269 269 270 269 270 270 270 270 270 271 272 273 273 274 275 276 277 278 279 279 279 280 279 278 278 277 277 276 276 276 276 276 276 277
265 266 267 268 269 269 270 270 270 270 270 270 271 272 273 274 274 274 275 276 277 279 279 280 280 281 280 280 280 279 278 278 277 277 278 278 279 279
265 266 267 268 268 269 269 269 270 270 271 271 271 273 274 274 275 274 274 275 277 279 279 280 280 280 281 281 281 281 280 279 279 279 279 280 280 280
265 266 267 268 268 268 269 269 270 270 271 272 272 273 274 274 274 273 274 275 277 278 279 280 280 280 280 280 281 282 281 281 280 281 281 281 282 282
266 266 267 268 269 269 269 270 270 270 271 272 274 274 274 274 273 273 274 275 276 278 279 280 280 280 280 281 281 282 283 284 283 282 282 283 283 284
265 265 266 267 268 269 269 269 270 270 271 272 274 274 274 274 273 274 274 275 276 277 279 279 279 280 281 281 282 282 283 285 285 284 284 284 285 285
266 266 266 266 267 267 268 269 269 269 271 272 273 274 274 273 273 274 274 275 276 277 278 279 279 281 282 282 283 283 284 285 286 286 286 287 287 288
266 266 266 266 266 267 267 268 268 269 270 271 273 273 273 273 273 273 274 274 275 276 277 278 279 281 282 283 284 285 285 286 286 286 287 288 288 288